Time,TemperatureF,DewpointF,PressureIn,WindDirection,WindDirectionDegrees,WindSpeedMPH,WindSpeedGustMPH,Humidity,HourlyPrecipIn,Conditions,Clouds,dailyrainin,SoftwareType,DateUTC
2013-05-08 00:01:00,59.1,56.8,30.14,East,90,1.1,0.0,92,0.00,CLR,,0.00,WeatherDisplay:10.37,2013-05-08 04:01:00,
2013-05-08 00:02:00,59.1,56.8,30.14,East,90,1.1,1.1,92,0.00,CLR,,0.00,WeatherDisplay:10.37,2013-05-08 04:02:00,
2013-05-08 00:03:00,59.1,56.8,30.14,East,90,1.1,1.1,92,0.00,CLR,,0.00,WeatherDisplay:10.37,2013-05-08 04:03:00,
2013-05-08 00:08:00,59.1,56.8,30.14,East,90,3.5,3.5,92,0.00,CLR,,0.00,WeatherDisplay:10.37,2013-05-08 04:08:00,
2013-05-08 00:13:00,59.1,56.8,30.14,East,90,2.3,0.0,92,0.00,CLR,,0.00,WeatherDisplay:10.37,2013-05-08 04:13:00,
2013-05-08 00:19:00,59.2,56.9,30.13,East,90,2.3,2.3,92,0.00,CLR,,0.00,WeatherDisplay:10.37,2013-05-08 04:19:00,
2013-05-08 00:24:00,59.3,57.0,30.13,East,90,1.1,0.0,92,0.00,CLR,,0.00,WeatherDisplay:10.37,2013-05-08 04:24:00,
2013-05-08 00:29:00,59.3,57.0,30.14,East,90,3.5,3.5,92,0.00,CLR,,0.00,WeatherDisplay:10.37,2013-05-08 04:29:00,
2013-05-08 00:34:00,59.3,57.0,30.13,East,90,2.3,2.3,92,0.00,CLR,,0.00,WeatherDisplay:10.37,2013-05-08 04:34:00,
2013-05-08 00:39:00,59.3,57.0,30.13,East,90,0.0,0.0,92,0.00,CLR,,0.00,WeatherDisplay:10.37,2013-05-08 04:39:00,
2013-05-08 00:45:00,59.4,57.1,30.13,East,90,0.0,0.0,92,0.00,CLR,,0.00,WeatherDisplay:10.37,2013-05-08 04:45:00,
2013-05-08 00:50:00,59.4,57.1,30.13,East,90,1.1,1.1,92,0.00,CLR,,0.00,WeatherDisplay:10.37,2013-05-08 04:50:00,
2013-05-08 00:55:00,59.4,57.1,30.13,East,90,3.5,3.5,92,0.00,CLR,,0.00,WeatherDisplay:10.37,2013-05-08 04:55:00,
2013-05-08 01:00:00,59.4,57.1,30.13,East,90,3.5,3.5,92,0.00,BKN,,0.00,WeatherDisplay:10.37,2013-05-08 05:00:00,
2013-05-08 01:05:00,59.4,57.1,30.12,East,90,4.6,4.6,92,0.00,BKN,,0.00,WeatherDisplay:10.37,2013-05-08 05:05:00,
2013-05-08 01:11:00,59.4,57.1,30.12,East,90,4.0,4.0,92,0.00,BKN,,0.00,WeatherDisplay:10.37,2013-05-08 05:11:00,
2013-05-08 01:16:00,59.4,57.1,30.12,East,90,5.8,5.8,92,0.00,BKN,,0.00,WeatherDisplay:10.37,2013-05-08 05:16:00,
2013-05-08 01:21:00,59.3,57.0,30.11,NNE,13,5.8,5.8,92,0.00,BKN,,0.00,WeatherDisplay:10.37,2013-05-08 05:21:00,
2013-05-08 01:26:00,59.2,56.9,30.11,NNE,14,4.0,4.0,92,0.00,BKN,,0.00,WeatherDisplay:10.37,2013-05-08 05:26:00,
2013-05-08 01:31:00,59.1,56.8,30.11,NNE,14,4.6,4.6,92,0.00,BKN,,0.00,WeatherDisplay:10.37,2013-05-08 05:31:00,
2013-05-08 01:37:00,59.1,56.8,30.11,NNE,14,4.6,4.6,92,0.00,BKN,,0.00,WeatherDisplay:10.37,2013-05-08 05:37:00,
2013-05-08 01:42:00,59.0,56.7,30.11,NNE,14,3.5,3.5,92,0.00,BKN,,0.00,WeatherDisplay:10.37,2013-05-08 05:42:00,
2013-05-08 01:47:00,59.0,57.6,30.11,NNE,16,3.5,3.5,95,0.00,BKN,,0.00,WeatherDisplay:10.37,2013-05-08 05:47:00,
2013-05-08 01:52:00,59.0,57.6,30.11,NNE,16,4.0,4.0,95,0.00,BKN,,0.00,WeatherDisplay:10.37,2013-05-08 05:52:00,
2013-05-08 01:57:00,59.0,57.0,30.11,NNE,16,4.6,4.6,93,0.00,BKN,,0.00,WeatherDisplay:10.37,2013-05-08 05:57:00,
2013-05-08 02:03:00,59.0,57.0,30.11,NNE,16,3.5,3.5,93,0.00,SCT,,0.00,WeatherDisplay:10.37,2013-05-08 06:03:00,
2013-05-08 02:08:00,59.0,57.0,30.11,ENE,74,5.8,5.8,93,0.00,SCT,,0.00,WeatherDisplay:10.37,2013-05-08 06:08:00,
2013-05-08 02:13:00,59.1,57.1,30.11,ESE,107,11.0,11.0,93,0.00,SCT,,0.00,WeatherDisplay:10.37,2013-05-08 06:13:00,
2013-05-08 02:18:00,59.2,57.2,30.11,ESE,108,8.1,8.1,93,0.00,SCT,,0.00,WeatherDisplay:10.37,2013-05-08 06:18:00,
2013-05-08 02:23:00,59.1,57.1,30.11,East,101,8.1,8.1,93,0.00,SCT,,0.00,WeatherDisplay:10.37,2013-05-08 06:23:00,
2013-05-08 02:29:00,59.1,57.4,30.11,East,96,8.1,8.1,94,0.00,SCT,,0.00,WeatherDisplay:10.37,2013-05-08 06:29:00,
2013-05-08 02:34:00,59.1,57.4,30.11,ESE,103,8.1,8.1,94,0.00,SCT,,0.00,WeatherDisplay:10.37,2013-05-08 06:34:00,
2013-05-08 02:39:00,59.0,57.3,30.11,East,100,5.8,5.8,94,0.00,SCT,,0.00,WeatherDisplay:10.37,2013-05-08 06:39:00,
2013-05-08 02:44:00,59.0,57.3,30.11,East,84,4.6,4.6,94,0.00,SCT,,0.00,WeatherDisplay:10.37,2013-05-08 06:44:00,
2013-05-08 02:49:00,59.1,57.4,30.11,East,95,6.9,6.9,94,0.00,SCT,,0.00,WeatherDisplay:10.37,2013-05-08 06:49:00,
2013-05-08 02:54:00,59.1,57.4,30.11,East,88,3.5,3.5,94,0.00,SCT,,0.00,WeatherDisplay:10.37,2013-05-08 06:54:00,
2013-05-08 03:00:00,59.1,57.4,30.10,East,89,2.0,7.0,94,0.00,SCT,,0.00,WeatherDisplay:10.37,2013-05-08 07:00:00,
2013-05-08 03:05:00,59.0,57.3,30.10,ENE,76,3.5,3.5,94,0.00,FEW,,0.00,WeatherDisplay:10.37,2013-05-08 07:05:00,
2013-05-08 03:10:00,59.1,57.4,30.10,ENE,76,4.6,4.6,94,0.00,FEW,,0.00,WeatherDisplay:10.37,2013-05-08 07:10:00,
2013-05-08 03:15:00,59.1,57.4,30.10,ENE,76,2.3,2.3,94,0.00,FEW,,0.00,WeatherDisplay:10.37,2013-05-08 07:15:00,
2013-05-08 03:20:00,59.1,57.4,30.10,ENE,76,1.1,0.0,94,0.00,FEW,,0.00,WeatherDisplay:10.37,2013-05-08 07:20:00,
2013-05-08 03:26:00,59.1,57.4,30.10,ENE,76,0.0,0.0,94,0.00,FEW,,0.00,WeatherDisplay:10.37,2013-05-08 07:26:00,
2013-05-08 03:31:00,59.1,57.4,30.10,ENE,76,2.3,2.3,94,0.00,FEW,,0.00,WeatherDisplay:10.37,2013-05-08 07:31:00,
2013-05-08 03:36:00,59.1,57.4,30.09,NE,51,5.0,5.0,94,0.00,FEW,,0.00,WeatherDisplay:10.37,2013-05-08 07:36:00,
2013-05-08 03:41:00,59.0,57.3,30.09,NE,49,4.6,4.6,94,0.00,FEW,,0.00,WeatherDisplay:10.37,2013-05-08 07:41:00,
2013-05-08 03:47:00,59.1,57.4,30.09,NE,49,4.0,4.0,94,0.00,FEW,,0.00,WeatherDisplay:10.37,2013-05-08 07:47:00,
2013-05-08 03:52:00,59.1,57.4,30.09,NE,49,5.8,5.8,94,0.00,FEW,,0.00,WeatherDisplay:10.37,2013-05-08 07:52:00,
2013-05-08 03:57:00,59.0,57.3,30.09,NE,49,4.0,4.0,94,0.00,FEW,,0.00,WeatherDisplay:10.37,2013-05-08 07:57:00,
2013-05-08 04:02:00,58.9,57.2,30.09,NE,49,4.0,4.0,94,0.00,CLR,,0.00,WeatherDisplay:10.37,2013-05-08 08:02:00,
2013-05-08 04:07:00,58.9,57.5,30.09,NE,49,3.5,3.5,95,0.00,CLR,,0.00,WeatherDisplay:10.37,2013-05-08 08:07:00,
2013-05-08 04:13:00,58.9,57.5,30.09,NE,49,4.0,4.0,95,0.00,CLR,,0.00,WeatherDisplay:10.37,2013-05-08 08:13:00,
2013-05-08 04:18:00,58.8,57.4,30.09,NE,48,5.8,5.8,95,0.00,CLR,,0.00,WeatherDisplay:10.37,2013-05-08 08:18:00,
2013-05-08 04:23:00,58.8,57.1,30.09,NNE,22,5.8,5.8,94,0.00,CLR,,0.00,WeatherDisplay:10.37,2013-05-08 08:23:00,
2013-05-08 04:28:00,58.8,57.1,30.09,NNE,22,4.0,4.0,94,0.00,CLR,,0.00,WeatherDisplay:10.37,2013-05-08 08:28:00,
2013-05-08 04:33:00,58.8,57.1,30.09,NNE,22,3.5,3.5,94,0.00,CLR,,0.00,WeatherDisplay:10.37,2013-05-08 08:33:00,
2013-05-08 04:38:00,58.7,57.0,30.09,NNE,24,3.5,3.5,94,0.00,CLR,,0.00,WeatherDisplay:10.37,2013-05-08 08:38:00,
2013-05-08 04:44:00,58.7,57.0,30.09,NNE,26,4.6,4.6,94,0.00,CLR,,0.00,WeatherDisplay:10.37,2013-05-08 08:44:00,
2013-05-08 04:49:00,58.6,56.9,30.09,NNE,26,4.0,4.0,94,0.00,CLR,,0.00,WeatherDisplay:10.37,2013-05-08 08:49:00,
2013-05-08 04:54:00,58.5,56.8,30.09,NNE,26,5.0,5.0,94,0.00,CLR,,0.00,WeatherDisplay:10.37,2013-05-08 08:54:00,
2013-05-08 04:59:00,58.4,57.0,30.09,NNE,24,6.0,6.0,95,0.00,CLR,,0.00,WeatherDisplay:10.37,2013-05-08 08:59:00,
2013-05-08 05:04:00,58.5,57.1,30.09,NNE,30,6.9,6.9,95,0.00,SCT,,0.00,WeatherDisplay:10.37,2013-05-08 09:04:00,
2013-05-08 05:10:00,58.5,57.1,30.09,NNE,32,5.8,5.8,95,0.00,SCT,,0.00,WeatherDisplay:10.37,2013-05-08 09:10:00,
2013-05-08 05:15:00,58.4,57.0,30.09,NNE,33,5.0,7.0,95,0.00,SCT,,0.00,WeatherDisplay:10.37,2013-05-08 09:15:00,
2013-05-08 05:20:00,58.4,57.0,30.10,NE,34,3.5,3.5,95,0.00,SCT,,0.00,WeatherDisplay:10.37,2013-05-08 09:20:00,
2013-05-08 05:25:00,58.4,57.0,30.09,NNE,32,4.6,4.6,95,0.00,SCT,,0.00,WeatherDisplay:10.37,2013-05-08 09:25:00,
2013-05-08 05:30:00,58.3,56.9,30.10,NNE,32,3.5,3.5,95,0.00,SCT,,0.00,WeatherDisplay:10.37,2013-05-08 09:30:00,
2013-05-08 05:35:00,58.3,56.9,30.10,NNE,32,3.5,3.5,95,0.00,SCT,,0.00,WeatherDisplay:10.37,2013-05-08 09:35:00,
2013-05-08 05:40:00,58.4,57.0,30.10,NNE,32,3.5,3.5,95,0.00,SCT,,0.00,WeatherDisplay:10.37,2013-05-08 09:40:00,
2013-05-08 05:46:00,58.6,57.2,30.10,NNE,29,4.6,4.6,95,0.00,SCT,,0.00,WeatherDisplay:10.37,2013-05-08 09:46:00,
2013-05-08 05:51:00,58.6,57.2,30.10,NNE,29,4.6,4.6,95,0.00,SCT,,0.00,WeatherDisplay:10.37,2013-05-08 09:51:00,
2013-05-08 05:56:00,58.7,57.3,30.10,NNE,29,3.5,3.5,95,0.00,SCT,,0.00,WeatherDisplay:10.37,2013-05-08 09:56:00,
2013-05-08 06:01:00,58.7,57.3,30.11,NNE,29,3.5,3.5,95,0.00,BKN,,0.00,WeatherDisplay:10.37,2013-05-08 10:01:00,
2013-05-08 06:06:00,58.8,57.4,30.11,NNE,29,3.5,3.5,95,0.00,BKN,,0.00,WeatherDisplay:10.37,2013-05-08 10:06:00,
2013-05-08 06:12:00,59.0,57.6,30.11,NNE,29,4.0,4.0,95,0.00,BKN,,0.00,WeatherDisplay:10.37,2013-05-08 10:12:00,
2013-05-08 06:17:00,59.1,57.7,30.11,NNE,30,5.0,5.0,95,0.00,BKN,,0.00,WeatherDisplay:10.37,2013-05-08 10:17:00,
2013-05-08 06:22:00,59.2,57.8,30.11,ENE,57,7.0,7.0,95,0.00,BKN,,0.00,WeatherDisplay:10.37,2013-05-08 10:22:00,
2013-05-08 06:27:00,59.5,58.1,30.11,NE,38,6.0,6.0,95,0.00,BKN,,0.00,WeatherDisplay:10.37,2013-05-08 10:27:00,
2013-05-08 06:32:00,59.8,58.4,30.11,NE,38,4.6,4.6,95,0.00,BKN,,0.00,WeatherDisplay:10.37,2013-05-08 10:32:00,
2013-05-08 06:38:00,60.2,58.8,30.11,NE,43,4.6,4.6,95,0.00,BKN,,0.00,WeatherDisplay:10.37,2013-05-08 10:38:00,
2013-05-08 06:43:00,60.6,58.9,30.11,NE,42,4.0,4.0,94,0.00,BKN,,0.00,WeatherDisplay:10.37,2013-05-08 10:43:00,
2013-05-08 06:48:00,60.9,59.2,30.11,NE,42,3.5,3.5,94,0.00,BKN,,0.00,WeatherDisplay:10.37,2013-05-08 10:48:00,
2013-05-08 06:53:00,61.3,59.6,30.12,NE,42,3.5,3.5,94,0.00,BKN,,0.00,WeatherDisplay:10.37,2013-05-08 10:53:00,
2013-05-08 06:59:00,61.6,59.6,30.12,NE,42,0.0,0.0,93,0.00,BKN,,0.00,WeatherDisplay:10.37,2013-05-08 10:59:00,
2013-05-08 07:04:00,61.9,59.9,30.13,NE,42,1.0,0.0,93,0.00,BKN,,0.00,WeatherDisplay:10.37,2013-05-08 11:04:00,
2013-05-08 07:09:00,62.1,59.7,30.12,NE,42,1.1,1.1,92,0.00,BKN,,0.00,WeatherDisplay:10.37,2013-05-08 11:09:00,
2013-05-08 07:14:00,62.2,59.5,30.12,ESE,116,5.0,5.0,91,0.00,BKN,,0.00,WeatherDisplay:10.37,2013-05-08 11:14:00,
2013-05-08 07:20:00,62.1,59.4,30.12,East,86,3.5,3.5,91,0.00,BKN,,0.00,WeatherDisplay:10.37,2013-05-08 11:20:00,
2013-05-08 07:25:00,62.3,59.6,30.12,East,88,5.8,5.8,91,0.00,BKN,,0.00,WeatherDisplay:10.37,2013-05-08 11:25:00,
2013-05-08 07:30:00,62.3,59.6,30.12,East,94,8.1,8.1,91,0.00,BKN,,0.00,WeatherDisplay:10.37,2013-05-08 11:30:00,
2013-05-08 07:35:00,62.4,59.7,30.12,ENE,63,6.9,6.9,91,0.00,BKN,,0.00,WeatherDisplay:10.37,2013-05-08 11:35:00,
2013-05-08 07:40:00,62.5,59.5,30.12,ENE,63,6.0,6.0,90,0.00,BKN,,0.00,WeatherDisplay:10.37,2013-05-08 11:40:00,
2013-05-08 07:46:00,62.7,59.7,30.12,East,90,6.9,6.9,90,0.00,BKN,,0.00,WeatherDisplay:10.37,2013-05-08 11:46:00,
2013-05-08 07:51:00,62.9,59.9,30.12,ESE,104,9.2,9.2,90,0.00,BKN,,0.00,WeatherDisplay:10.37,2013-05-08 11:51:00,
2013-05-08 07:56:00,62.9,59.9,30.12,ESE,103,4.0,4.0,90,0.00,BKN,,0.00,WeatherDisplay:10.37,2013-05-08 11:56:00,
2013-05-08 08:01:00,63.0,60.0,30.12,East,81,8.0,8.0,90,0.00,-RA,,0.00,WeatherDisplay:10.37,2013-05-08 12:01:00,
2013-05-08 08:06:00,63.3,60.3,30.12,East,83,10.4,10.4,90,0.00,-RA,,0.00,WeatherDisplay:10.37,2013-05-08 12:06:00,
2013-05-08 08:12:00,63.6,60.6,30.12,East,98,8.1,8.1,90,0.00,-RA,,0.00,WeatherDisplay:10.37,2013-05-08 12:12:00,
2013-05-08 08:17:00,63.8,60.5,30.12,East,94,7.0,7.0,89,0.00,-RA,,0.00,WeatherDisplay:10.37,2013-05-08 12:17:00,
2013-05-08 08:22:00,64.1,60.8,30.12,ENE,74,5.8,5.8,89,0.00,-RA,,0.00,WeatherDisplay:10.37,2013-05-08 12:22:00,
2013-05-08 08:27:00,64.4,61.1,30.12,East,96,12.0,12.0,89,0.00,-RA,,0.00,WeatherDisplay:10.37,2013-05-08 12:27:00,
2013-05-08 08:32:00,64.6,61.3,30.12,ESE,105,13.8,13.8,89,0.00,-RA,,0.00,WeatherDisplay:10.37,2013-05-08 12:32:00,
2013-05-08 08:38:00,64.7,61.4,30.12,East,92,11.5,11.5,89,0.00,-RA,,0.00,WeatherDisplay:10.37,2013-05-08 12:38:00,
2013-05-08 08:43:00,64.9,61.3,30.12,East,90,15.0,15.0,88,0.00,-RA,,0.00,WeatherDisplay:10.37,2013-05-08 12:43:00,
2013-05-08 08:48:00,65.0,61.7,30.12,East,96,13.8,13.8,89,0.00,-RA,,0.00,WeatherDisplay:10.37,2013-05-08 12:48:00,
2013-05-08 08:53:00,65.2,61.6,30.12,ESE,105,14.0,14.0,88,0.00,-RA,,0.00,WeatherDisplay:10.37,2013-05-08 12:53:00,
2013-05-08 08:58:00,65.4,61.4,30.12,East,96,16.1,16.1,87,0.00,-RA,,0.00,WeatherDisplay:10.37,2013-05-08 12:58:00,
2013-05-08 09:04:00,65.7,61.7,30.12,ESE,103,16.1,16.1,87,0.00,-RA,,0.00,WeatherDisplay:10.37,2013-05-08 13:04:00,
2013-05-08 09:09:00,65.8,61.8,30.12,ESE,118,15.0,15.0,87,0.00,-RA,,0.00,WeatherDisplay:10.37,2013-05-08 13:09:00,
2013-05-08 09:14:00,66.0,61.7,30.12,East,96,16.1,16.1,86,0.00,-RA,,0.00,WeatherDisplay:10.37,2013-05-08 13:14:00,
2013-05-08 09:19:00,66.1,62.1,30.12,East,88,18.4,18.4,87,0.00,-RA,,0.00,WeatherDisplay:10.37,2013-05-08 13:19:00,
2013-05-08 09:24:00,66.0,61.7,30.12,East,91,19.6,19.6,86,0.00,-RA,,0.00,WeatherDisplay:10.37,2013-05-08 13:24:00,
2013-05-08 09:30:00,65.9,61.6,30.12,East,91,16.1,16.1,86,0.00,-RA,,0.00,WeatherDisplay:10.37,2013-05-08 13:30:00,
2013-05-08 09:35:00,65.9,61.9,30.12,East,88,16.0,16.0,87,0.00,-RA,,0.00,WeatherDisplay:10.37,2013-05-08 13:35:00,
2013-05-08 09:40:00,65.9,61.6,30.12,ESE,105,15.0,15.0,86,0.00,-RA,,0.00,WeatherDisplay:10.37,2013-05-08 13:40:00,
2013-05-08 09:45:00,65.9,61.6,30.12,ESE,118,16.1,16.1,86,0.00,-RA,,0.00,WeatherDisplay:10.37,2013-05-08 13:45:00,
2013-05-08 09:50:00,65.9,61.6,30.12,ESE,102,21.0,21.0,86,0.00,-RA,,0.00,WeatherDisplay:10.37,2013-05-08 13:50:00,
2013-05-08 09:56:00,65.6,61.6,30.12,ESE,115,21.0,21.0,87,0.00,-RA,,0.00,WeatherDisplay:10.37,2013-05-08 13:56:00,
2013-05-08 10:01:00,65.2,61.2,30.12,ESE,117,18.4,18.4,87,0.00,-RA,,0.00,WeatherDisplay:10.37,2013-05-08 14:01:00,
2013-05-08 10:06:00,65.0,61.4,30.12,ESE,117,18.4,18.4,88,0.00,-RA,,0.00,WeatherDisplay:10.37,2013-05-08 14:06:00,
2013-05-08 10:11:00,64.8,61.2,30.12,East,98,16.1,16.1,88,0.00,-RA,,0.00,WeatherDisplay:10.37,2013-05-08 14:11:00,
2013-05-08 10:16:00,64.7,61.1,30.12,ESE,111,14.0,14.0,88,0.00,-RA,,0.00,WeatherDisplay:10.37,2013-05-08 14:16:00,
2013-05-08 10:21:00,64.6,61.0,30.12,ESE,109,19.0,19.0,88,0.00,-RA,,0.00,WeatherDisplay:10.37,2013-05-08 14:21:00,
2013-05-08 10:26:00,64.6,61.0,30.12,East,92,19.6,19.6,88,0.00,-RA,,0.00,WeatherDisplay:10.37,2013-05-08 14:26:00,
2013-05-08 10:31:00,64.5,60.9,30.12,ESE,106,16.1,16.1,88,0.00,-RA,,0.00,WeatherDisplay:10.37,2013-05-08 14:31:00,
2013-05-08 10:36:00,64.4,60.8,30.12,ESE,105,18.4,18.4,88,0.00,-RA,,0.00,WeatherDisplay:10.37,2013-05-08 14:36:00,
2013-05-08 10:42:00,64.3,61.0,30.12,ESE,114,19.6,19.6,89,0.00,-RA,,0.00,WeatherDisplay:10.37,2013-05-08 14:42:00,
2013-05-08 10:47:00,64.3,61.0,30.11,ESE,113,16.1,16.1,89,0.00,-RA,,0.00,WeatherDisplay:10.37,2013-05-08 14:47:00,
2013-05-08 10:52:00,64.3,61.0,30.11,ESE,109,19.6,19.6,89,0.00,-RA,,0.00,WeatherDisplay:10.37,2013-05-08 14:52:00,
2013-05-08 10:57:00,64.3,61.0,30.12,East,97,19.6,19.6,89,0.00,-RA,,0.00,WeatherDisplay:10.37,2013-05-08 14:57:00,
2013-05-08 11:02:00,64.3,61.0,30.12,ESE,104,19.6,19.6,89,0.00,-RA,,0.00,WeatherDisplay:10.37,2013-05-08 15:02:00,
2013-05-08 11:07:00,64.3,61.0,30.12,East,94,19.6,19.6,89,0.00,-RA,,0.00,WeatherDisplay:10.37,2013-05-08 15:07:00,
2013-05-08 11:12:00,64.2,60.9,30.11,East,97,20.7,20.7,89,0.00,-RA,,0.00,WeatherDisplay:10.37,2013-05-08 15:12:00,
2013-05-08 11:17:00,64.2,60.9,30.11,ESE,105,20.0,20.0,89,0.00,-RA,,0.00,WeatherDisplay:10.37,2013-05-08 15:17:00,
2013-05-08 11:22:00,64.3,61.3,30.11,East,87,19.6,19.6,90,0.00,-RA,,0.00,WeatherDisplay:10.37,2013-05-08 15:22:00,
2013-05-08 11:27:00,64.2,61.2,30.10,East,98,20.7,20.7,90,0.00,-RA,,0.00,WeatherDisplay:10.37,2013-05-08 15:27:00,
2013-05-08 11:32:00,64.1,61.1,30.10,East,85,18.0,18.0,90,0.00,-RA,,0.00,WeatherDisplay:10.37,2013-05-08 15:32:00,
2013-05-08 11:37:00,63.9,61.2,30.09,East,87,19.6,19.6,91,0.00,-RA,,0.00,WeatherDisplay:10.37,2013-05-08 15:37:00,
2013-05-08 11:42:00,63.8,61.1,30.09,East,87,17.0,17.0,91,0.01,-RA,,0.01,WeatherDisplay:10.37,2013-05-08 15:42:00,
2013-05-08 11:48:00,63.9,61.5,30.09,East,101,15.0,15.0,92,0.01,-RA,,0.01,WeatherDisplay:10.37,2013-05-08 15:48:00,
2013-05-08 11:53:00,64.1,61.7,30.09,East,88,19.6,19.6,92,0.01,-RA,,0.01,WeatherDisplay:10.37,2013-05-08 15:53:00,
2013-05-08 11:58:00,64.2,61.8,30.08,East,92,20.7,20.7,92,0.01,-RA,,0.01,WeatherDisplay:10.37,2013-05-08 15:58:00,
2013-05-08 12:03:00,64.6,62.2,30.08,East,82,21.9,21.9,92,0.01,-RA,,0.01,WeatherDisplay:10.37,2013-05-08 16:03:00,
2013-05-08 12:08:00,64.9,62.5,30.08,East,84,25.0,25.0,92,0.01,-RA,,0.01,WeatherDisplay:10.37,2013-05-08 16:08:00,
2013-05-08 12:13:00,65.2,62.8,30.08,East,89,20.0,20.0,92,0.01,-RA,,0.01,WeatherDisplay:10.37,2013-05-08 16:13:00,
2013-05-08 12:18:00,65.4,62.7,30.08,East,96,22.0,22.0,91,0.01,-RA,,0.01,WeatherDisplay:10.37,2013-05-08 16:18:00,
2013-05-08 12:23:00,65.5,62.5,30.08,East,98,27.6,27.6,90,0.01,-RA,,0.01,WeatherDisplay:10.37,2013-05-08 16:23:00,
2013-05-08 12:28:00,65.2,62.2,30.07,East,99,27.6,27.6,90,0.01,-RA,,0.01,WeatherDisplay:10.37,2013-05-08 16:28:00,
2013-05-08 12:34:00,65.2,62.2,30.07,East,99,19.6,19.6,90,0.01,-RA,,0.01,WeatherDisplay:10.37,2013-05-08 16:34:00,
2013-05-08 12:39:00,65.3,62.3,30.07,ESE,103,27.6,27.6,90,0.01,-RA,,0.01,WeatherDisplay:10.37,2013-05-08 16:39:00,
2013-05-08 12:44:00,65.3,62.3,30.08,East,100,27.6,27.6,90,0.00,-RA,,0.01,WeatherDisplay:10.37,2013-05-08 16:44:00,
2013-05-08 12:49:00,65.4,62.1,30.07,East,92,31.1,31.1,89,0.00,-RA,,0.01,WeatherDisplay:10.37,2013-05-08 16:49:00,
2013-05-08 12:55:00,65.6,62.3,30.06,East,97,28.0,28.0,89,0.00,-RA,,0.01,WeatherDisplay:10.37,2013-05-08 16:55:00,
2013-05-08 13:00:00,65.7,62.4,30.06,ENE,74,28.8,28.8,89,0.00,-RA,,0.01,WeatherDisplay:10.37,2013-05-08 17:00:00,
2013-05-08 13:05:00,65.5,62.2,30.06,East,84,34.0,34.0,89,0.00,-RA,,0.01,WeatherDisplay:10.37,2013-05-08 17:05:00,
2013-05-08 13:10:00,64.9,61.9,30.06,East,98,33.4,33.4,90,0.00,-RA,,0.01,WeatherDisplay:10.37,2013-05-08 17:10:00,
2013-05-08 13:15:00,64.7,61.7,30.07,East,101,28.8,28.8,90,0.00,-RA,,0.01,WeatherDisplay:10.37,2013-05-08 17:15:00,
2013-05-08 13:20:00,64.5,61.5,30.07,East,90,27.6,27.6,90,0.00,-RA,,0.01,WeatherDisplay:10.37,2013-05-08 17:20:00,
2013-05-08 13:26:00,64.3,61.3,30.07,ESE,116,35.7,35.7,90,0.00,-RA,,0.01,WeatherDisplay:10.37,2013-05-08 17:26:00,
2013-05-08 13:31:00,64.0,61.0,30.07,East,92,28.8,28.8,90,0.00,-RA,,0.01,WeatherDisplay:10.37,2013-05-08 17:31:00,
2013-05-08 13:36:00,63.6,60.9,30.07,East,84,25.3,25.3,91,0.00,-RA,,0.01,WeatherDisplay:10.37,2013-05-08 17:36:00,
2013-05-08 13:41:00,63.4,60.7,30.07,East,85,25.3,25.3,91,0.00,-RA,,0.01,WeatherDisplay:10.37,2013-05-08 17:41:00,
2013-05-08 13:46:00,63.4,61.0,30.06,East,96,25.3,25.3,92,0.00,-RA,,0.01,WeatherDisplay:10.37,2013-05-08 17:46:00,
2013-05-08 13:52:00,63.4,61.0,30.06,ESE,106,20.7,20.7,92,0.00,-RA,,0.01,WeatherDisplay:10.37,2013-05-08 17:52:00,
2013-05-08 13:57:00,63.2,60.8,30.06,East,99,26.5,26.5,92,0.00,-RA,,0.01,WeatherDisplay:10.37,2013-05-08 17:57:00,
2013-05-08 14:02:00,62.9,60.5,30.06,ESE,103,24.2,24.2,92,0.03,-RA,,0.04,WeatherDisplay:10.37,2013-05-08 18:02:00,
2013-05-08 14:07:00,62.3,60.2,30.05,ESE,121,23.0,23.0,93,0.09,-RA,,0.10,WeatherDisplay:10.37,2013-05-08 18:07:00,
2013-05-08 14:12:00,62.0,60.0,30.05,ESE,109,27.6,27.6,93,0.16,-RA,,0.17,WeatherDisplay:10.37,2013-05-08 18:12:00,
2013-05-08 14:18:00,61.8,60.1,30.05,ESE,121,19.6,19.6,94,0.16,-RA,,0.17,WeatherDisplay:10.37,2013-05-08 18:18:00,
2013-05-08 14:23:00,61.5,59.8,30.05,ESE,115,23.0,23.0,94,0.17,-RA,,0.18,WeatherDisplay:10.37,2013-05-08 18:23:00,
2013-05-08 14:28:00,61.3,59.6,30.05,SE,140,15.0,15.0,94,0.17,-RA,,0.18,WeatherDisplay:10.37,2013-05-08 18:28:00,
2013-05-08 14:33:00,61.1,59.4,30.05,ESE,119,20.7,20.7,94,0.17,-RA,,0.18,WeatherDisplay:10.37,2013-05-08 18:33:00,
2013-05-08 14:38:00,60.8,59.1,30.05,ESE,113,19.6,19.6,94,0.17,-RA,,0.18,WeatherDisplay:10.37,2013-05-08 18:38:00,
2013-05-08 14:43:00,60.6,58.9,30.05,ESE,117,19.6,19.6,94,0.17,-RA,,0.18,WeatherDisplay:10.37,2013-05-08 18:43:00,
2013-05-08 14:49:00,60.3,58.6,30.05,ESE,117,19.6,19.6,94,0.17,-RA,,0.18,WeatherDisplay:10.37,2013-05-08 18:49:00,
2013-05-08 14:54:00,60.1,58.7,30.05,ESE,111,21.9,21.9,95,0.17,-RA,,0.18,WeatherDisplay:10.37,2013-05-08 18:54:00,
2013-05-08 14:59:00,60.0,58.6,30.05,SE,129,20.7,20.7,95,0.17,-RA,,0.18,WeatherDisplay:10.37,2013-05-08 18:59:00,
2013-05-08 15:04:00,59.9,58.5,30.05,ESE,112,19.6,19.6,95,0.12,-RA,,0.18,WeatherDisplay:10.37,2013-05-08 19:04:00,
2013-05-08 15:10:00,59.9,58.5,30.05,ESE,112,19.6,19.6,95,0.04,-RA,,0.18,WeatherDisplay:10.37,2013-05-08 19:10:00,
2013-05-08 15:15:00,59.8,58.4,30.05,East,90,20.7,20.7,95,0.01,-RA,,0.18,WeatherDisplay:10.37,2013-05-08 19:15:00,
2013-05-08 15:20:00,59.7,58.3,30.05,ESE,109,20.0,20.0,95,0.00,-RA,,0.18,WeatherDisplay:10.37,2013-05-08 19:20:00,
2013-05-08 15:25:00,59.3,57.9,30.05,ESE,115,17.3,17.3,95,0.00,-RA,,0.18,WeatherDisplay:10.37,2013-05-08 19:25:00,
2013-05-08 15:30:00,59.4,58.0,30.05,ESE,121,19.6,19.6,95,0.00,-RA,,0.18,WeatherDisplay:10.37,2013-05-08 19:30:00,
2013-05-08 15:35:00,59.3,57.9,30.06,ESE,110,20.7,20.7,95,0.00,-RA,,0.18,WeatherDisplay:10.37,2013-05-08 19:35:00,
2013-05-08 15:40:00,59.3,58.2,30.06,East,90,19.6,19.6,96,0.00,-RA,,0.18,WeatherDisplay:10.37,2013-05-08 19:40:00,
2013-05-08 15:45:00,59.3,58.2,30.06,SE,132,19.6,19.6,96,0.00,-RA,,0.18,WeatherDisplay:10.37,2013-05-08 19:45:00,
2013-05-08 15:50:00,59.3,58.2,30.06,ESE,111,19.6,19.6,96,0.00,-RA,,0.18,WeatherDisplay:10.37,2013-05-08 19:50:00,
2013-05-08 15:56:00,59.0,57.9,30.06,East,95,19.6,19.6,96,0.00,-RA,,0.18,WeatherDisplay:10.37,2013-05-08 19:56:00,
2013-05-08 16:01:00,59.3,58.2,30.06,ESE,103,19.6,19.6,96,0.00,OVC,,0.18,WeatherDisplay:10.37,2013-05-08 20:01:00,
2013-05-08 16:06:00,59.2,58.1,30.06,ESE,109,18.4,18.4,96,0.00,OVC,,0.18,WeatherDisplay:10.37,2013-05-08 20:06:00,
2013-05-08 16:11:00,59.1,58.0,30.05,East,101,18.4,18.4,96,0.00,OVC,,0.18,WeatherDisplay:10.37,2013-05-08 20:11:00,
2013-05-08 16:16:00,59.0,57.9,30.05,East,99,18.4,18.4,96,0.00,OVC,,0.18,WeatherDisplay:10.37,2013-05-08 20:16:00,
2013-05-08 16:21:00,59.1,58.0,30.06,ESE,113,19.6,19.6,96,0.00,OVC,,0.18,WeatherDisplay:10.37,2013-05-08 20:21:00,
2013-05-08 16:26:00,59.3,58.2,30.06,ESE,107,16.1,16.1,96,0.00,OVC,,0.18,WeatherDisplay:10.37,2013-05-08 20:26:00,
2013-05-08 16:31:00,59.3,58.2,30.06,ESE,104,19.6,19.6,96,0.00,OVC,,0.18,WeatherDisplay:10.37,2013-05-08 20:31:00,
2013-05-08 16:36:00,59.3,58.2,30.05,ESE,114,16.1,16.1,96,0.00,OVC,,0.18,WeatherDisplay:10.37,2013-05-08 20:36:00,
2013-05-08 16:41:00,59.5,58.1,30.05,ESE,107,19.6,19.6,95,0.00,OVC,,0.18,WeatherDisplay:10.37,2013-05-08 20:41:00,
2013-05-08 16:46:00,59.6,58.2,30.05,ESE,112,15.0,15.0,95,0.00,OVC,,0.18,WeatherDisplay:10.37,2013-05-08 20:46:00,
2013-05-08 16:52:00,59.7,58.3,30.05,ESE,115,16.1,16.1,95,0.00,OVC,,0.18,WeatherDisplay:10.37,2013-05-08 20:52:00,
2013-05-08 16:57:00,59.6,58.2,30.05,East,100,16.1,16.1,95,0.00,OVC,,0.18,WeatherDisplay:10.37,2013-05-08 20:57:00,
2013-05-08 17:02:00,59.5,58.1,30.05,ESE,105,18.0,18.0,95,0.00,OVC,,0.18,WeatherDisplay:10.37,2013-05-08 21:02:00,
2013-05-08 17:07:00,59.5,58.1,30.04,ESE,115,15.0,15.0,95,0.00,OVC,,0.18,WeatherDisplay:10.37,2013-05-08 21:07:00,
2013-05-08 17:12:00,59.6,58.2,30.04,ESE,111,16.1,16.1,95,0.00,OVC,,0.18,WeatherDisplay:10.37,2013-05-08 21:12:00,
2013-05-08 17:18:00,59.5,58.1,30.04,ESE,119,13.8,13.8,95,0.00,OVC,,0.18,WeatherDisplay:10.37,2013-05-08 21:18:00,
2013-05-08 17:23:00,59.5,58.1,30.04,ESE,113,16.1,16.1,95,0.00,OVC,,0.18,WeatherDisplay:10.37,2013-05-08 21:23:00,
2013-05-08 17:28:00,59.5,58.1,30.04,East,99,13.8,13.8,95,0.00,OVC,,0.18,WeatherDisplay:10.37,2013-05-08 21:28:00,
2013-05-08 17:33:00,59.6,58.2,30.04,ESE,117,15.0,15.0,95,0.00,OVC,,0.18,WeatherDisplay:10.37,2013-05-08 21:33:00,
2013-05-08 17:39:00,59.5,58.1,30.04,ESE,115,13.8,13.8,95,0.00,OVC,,0.18,WeatherDisplay:10.37,2013-05-08 21:39:00,
2013-05-08 17:44:00,59.5,58.1,30.04,ESE,102,13.8,13.8,95,0.00,OVC,,0.18,WeatherDisplay:10.37,2013-05-08 21:44:00,
2013-05-08 17:49:00,59.4,58.0,30.03,ESE,114,12.7,12.7,95,0.00,OVC,,0.18,WeatherDisplay:10.37,2013-05-08 21:49:00,
2013-05-08 17:54:00,59.6,58.2,30.04,ESE,103,12.7,12.7,95,0.00,OVC,,0.18,WeatherDisplay:10.37,2013-05-08 21:54:00,
2013-05-08 17:59:00,59.6,58.2,30.03,ESE,106,12.7,12.7,95,0.00,OVC,,0.18,WeatherDisplay:10.37,2013-05-08 21:59:00,
2013-05-08 18:04:00,59.6,58.2,30.03,ESE,112,12.0,12.0,95,0.00,OVC,,0.18,WeatherDisplay:10.37,2013-05-08 22:04:00,
2013-05-08 18:09:00,59.6,58.2,30.03,ESE,105,11.5,11.5,95,0.00,OVC,,0.18,WeatherDisplay:10.37,2013-05-08 22:09:00,
2013-05-08 18:14:00,59.7,58.6,30.03,East,97,11.5,11.5,96,0.00,OVC,,0.18,WeatherDisplay:10.37,2013-05-08 22:14:00,
2013-05-08 18:19:00,59.7,58.6,30.03,ESE,105,11.5,11.5,96,0.00,OVC,,0.18,WeatherDisplay:10.37,2013-05-08 22:19:00,
2013-05-08 18:25:00,59.8,58.7,30.02,ESE,105,11.5,11.5,96,0.00,OVC,,0.18,WeatherDisplay:10.37,2013-05-08 22:25:00,
2013-05-08 18:30:00,59.8,58.7,30.02,East,101,12.0,12.0,96,0.00,OVC,,0.18,WeatherDisplay:10.37,2013-05-08 22:30:00,
2013-05-08 18:35:00,59.9,58.5,30.02,ESE,114,11.5,11.5,95,0.00,OVC,,0.18,WeatherDisplay:10.37,2013-05-08 22:35:00,
2013-05-08 18:40:00,59.9,58.5,30.02,East,98,8.1,8.1,95,0.00,OVC,,0.18,WeatherDisplay:10.37,2013-05-08 22:40:00,
2013-05-08 18:45:00,60.0,58.6,30.02,ESE,113,12.0,12.0,95,0.00,OVC,,0.18,WeatherDisplay:10.37,2013-05-08 22:45:00,
2013-05-08 18:50:00,60.1,58.7,30.02,ESE,107,11.5,11.5,95,0.00,OVC,,0.18,WeatherDisplay:10.37,2013-05-08 22:50:00,
2013-05-08 18:55:00,60.1,58.7,30.02,East,100,12.7,12.7,95,0.00,OVC,,0.18,WeatherDisplay:10.37,2013-05-08 22:55:00,
2013-05-08 19:00:00,60.0,58.6,30.02,ESE,118,13.8,13.8,95,0.00,OVC,,0.18,WeatherDisplay:10.37,2013-05-08 23:00:00,
2013-05-08 19:06:00,60.1,58.7,30.03,ESE,107,15.0,15.0,95,0.00,OVC,,0.18,WeatherDisplay:10.37,2013-05-08 23:06:00,
2013-05-08 19:11:00,60.1,58.7,30.03,ESE,119,13.8,13.8,95,0.00,OVC,,0.18,WeatherDisplay:10.37,2013-05-08 23:11:00,
2013-05-08 19:16:00,60.1,58.7,30.03,ESE,113,16.1,16.1,95,0.00,OVC,,0.18,WeatherDisplay:10.37,2013-05-08 23:16:00,
2013-05-08 19:21:00,59.9,58.5,30.03,ESE,121,15.0,15.0,95,0.00,OVC,,0.18,WeatherDisplay:10.37,2013-05-08 23:21:00,
2013-05-08 19:26:00,59.8,58.7,30.03,ESE,123,13.8,13.8,96,0.00,OVC,,0.18,WeatherDisplay:10.37,2013-05-08 23:26:00,
2013-05-08 19:31:00,59.6,58.2,30.03,ESE,107,15.0,15.0,95,0.00,OVC,,0.18,WeatherDisplay:10.37,2013-05-08 23:31:00,
2013-05-08 19:36:00,59.4,58.3,30.03,East,92,15.0,15.0,96,0.00,OVC,,0.18,WeatherDisplay:10.37,2013-05-08 23:36:00,
2013-05-08 19:42:00,59.3,58.2,30.03,ESE,112,13.0,13.0,96,0.00,OVC,,0.18,WeatherDisplay:10.37,2013-05-08 23:42:00,
2013-05-08 19:47:00,59.3,58.2,30.03,ESE,107,11.5,11.5,96,0.00,OVC,,0.18,WeatherDisplay:10.37,2013-05-08 23:47:00,
2013-05-08 19:52:00,59.2,58.1,30.03,ESE,105,12.0,12.0,96,0.00,OVC,,0.18,WeatherDisplay:10.37,2013-05-08 23:52:00,
2013-05-08 19:57:00,59.1,58.0,30.03,ESE,113,15.0,15.0,96,0.00,OVC,,0.18,WeatherDisplay:10.37,2013-05-08 23:57:00,
2013-05-08 20:02:00,59.1,58.0,30.03,ESE,109,12.0,12.0,96,0.00,OVC,,0.18,WeatherDisplay:10.37,2013-05-09 00:02:00,
2013-05-08 20:07:00,58.9,57.8,30.03,ESE,107,11.5,11.5,96,0.00,OVC,,0.18,WeatherDisplay:10.37,2013-05-09 00:07:00,
2013-05-08 20:12:00,58.8,57.7,30.03,ESE,120,11.5,11.5,96,0.00,OVC,,0.18,WeatherDisplay:10.37,2013-05-09 00:12:00,
2013-05-08 20:18:00,58.6,57.5,30.04,SE,130,12.0,12.0,96,0.00,OVC,,0.18,WeatherDisplay:10.37,2013-05-09 00:18:00,
2013-05-08 20:23:00,58.3,57.2,30.04,SE,129,12.7,12.7,96,0.00,OVC,,0.18,WeatherDisplay:10.37,2013-05-09 00:23:00,
2013-05-08 20:28:00,58.1,57.0,30.03,ESE,107,12.7,12.7,96,0.00,OVC,,0.18,WeatherDisplay:10.37,2013-05-09 00:28:00,
2013-05-08 20:33:00,58.0,56.9,30.03,ESE,123,11.5,11.5,96,0.00,OVC,,0.18,WeatherDisplay:10.37,2013-05-09 00:33:00,
2013-05-08 20:38:00,58.0,56.9,30.04,ESE,113,11.5,11.5,96,0.00,OVC,,0.18,WeatherDisplay:10.37,2013-05-09 00:38:00,
2013-05-08 20:43:00,57.8,56.7,30.04,ESE,114,11.5,11.5,96,0.00,OVC,,0.18,WeatherDisplay:10.37,2013-05-09 00:43:00,
2013-05-08 20:48:00,57.6,56.5,30.04,SE,129,9.2,9.2,96,0.00,OVC,,0.18,WeatherDisplay:10.37,2013-05-09 00:48:00,
2013-05-08 20:53:00,57.6,56.8,30.04,ESE,117,9.2,9.2,97,0.00,OVC,,0.18,WeatherDisplay:10.37,2013-05-09 00:53:00,
2013-05-08 20:58:00,57.4,56.6,30.04,SE,135,5.8,5.8,97,0.00,OVC,,0.18,WeatherDisplay:10.37,2013-05-09 00:58:00,
2013-05-08 21:04:00,57.3,56.5,30.04,SE,135,5.8,5.8,97,0.00,,,0.18,WeatherDisplay:10.37,2013-05-09 01:04:00,
2013-05-08 21:09:00,57.3,56.5,30.04,ESE,109,5.0,5.0,97,0.00,,,0.18,WeatherDisplay:10.37,2013-05-09 01:09:00,
2013-05-08 21:14:00,57.3,56.5,30.04,SE,124,6.9,6.9,97,0.00,,,0.18,WeatherDisplay:10.37,2013-05-09 01:14:00,
2013-05-08 21:19:00,57.2,56.4,30.04,ESE,106,6.9,6.9,97,0.00,,,0.18,WeatherDisplay:10.37,2013-05-09 01:19:00,
2013-05-08 21:24:00,57.3,56.5,30.04,East,100,6.9,6.9,97,0.00,,,0.18,WeatherDisplay:10.37,2013-05-09 01:24:00,
2013-05-08 21:29:00,57.2,56.4,30.04,ESE,105,7.0,7.0,97,0.00,,,0.18,WeatherDisplay:10.37,2013-05-09 01:29:00,
2013-05-08 21:34:00,57.2,56.4,30.04,ESE,112,7.0,7.0,97,0.00,,,0.18,WeatherDisplay:10.37,2013-05-09 01:34:00,
2013-05-08 21:40:00,57.1,56.3,30.05,ESE,113,6.9,6.9,97,0.00,,,0.18,WeatherDisplay:10.37,2013-05-09 01:40:00,
2013-05-08 21:45:00,57.1,56.3,30.05,ESE,112,4.6,4.6,97,0.00,,,0.18,WeatherDisplay:10.37,2013-05-09 01:45:00,
2013-05-08 21:50:00,57.1,56.3,30.05,ESE,112,5.0,5.0,97,0.00,,,0.18,WeatherDisplay:10.37,2013-05-09 01:50:00,
2013-05-08 21:55:00,57.1,56.3,30.05,ESE,112,4.6,4.6,97,0.00,,,0.18,WeatherDisplay:10.37,2013-05-09 01:55:00,
2013-05-08 22:00:00,57.1,56.3,30.05,ESE,112,4.6,4.6,97,0.00,,,0.18,WeatherDisplay:10.37,2013-05-09 02:00:00,
2013-05-08 22:05:00,57.2,56.4,30.05,East,90,5.8,5.8,97,0.00,,,0.18,WeatherDisplay:10.37,2013-05-09 02:05:00,
2013-05-08 22:11:00,57.2,56.4,30.05,East,90,3.5,3.5,97,0.00,,,0.18,WeatherDisplay:10.37,2013-05-09 02:11:00,
2013-05-08 22:16:00,57.1,56.3,30.05,East,90,3.5,3.5,97,0.00,,,0.18,WeatherDisplay:10.37,2013-05-09 02:16:00,
2013-05-08 22:21:00,57.1,56.3,30.04,East,90,5.0,5.0,97,0.00,,,0.18,WeatherDisplay:10.37,2013-05-09 02:21:00,
2013-05-08 22:26:00,57.1,56.3,30.04,East,90,3.5,3.5,97,0.00,,,0.18,WeatherDisplay:10.37,2013-05-09 02:26:00,
2013-05-08 22:31:00,57.0,56.2,30.04,East,90,4.0,4.0,97,0.00,,,0.18,WeatherDisplay:10.37,2013-05-09 02:31:00,
2013-05-08 22:37:00,57.0,56.2,30.04,East,90,3.5,3.5,97,0.00,,,0.18,WeatherDisplay:10.37,2013-05-09 02:37:00,
2013-05-08 22:42:00,57.1,56.3,30.04,East,90,1.1,1.1,97,0.00,,,0.18,WeatherDisplay:10.37,2013-05-09 02:42:00,
2013-05-08 22:47:00,57.1,56.3,30.04,East,90,0.0,0.0,97,0.00,,,0.18,WeatherDisplay:10.37,2013-05-09 02:47:00,
2013-05-08 22:52:00,57.1,56.3,30.04,East,90,0.0,0.0,97,0.00,,,0.18,WeatherDisplay:10.37,2013-05-09 02:52:00,
2013-05-08 22:57:00,57.1,56.3,30.04,East,90,0.0,0.0,97,0.00,,,0.18,WeatherDisplay:10.37,2013-05-09 02:57:00,
2013-05-08 23:03:00,57.2,56.4,30.04,East,90,0.0,0.0,97,0.00,OVC,,0.18,WeatherDisplay:10.37,2013-05-09 03:03:00,
2013-05-08 23:08:00,57.2,56.4,30.03,East,90,2.3,2.3,97,0.00,OVC,,0.18,WeatherDisplay:10.37,2013-05-09 03:08:00,
2013-05-08 23:13:00,57.2,56.4,30.03,East,90,2.0,2.0,97,0.00,OVC,,0.18,WeatherDisplay:10.37,2013-05-09 03:13:00,
2013-05-08 23:18:00,57.2,56.4,30.03,East,90,2.3,0.0,97,0.00,OVC,,0.18,WeatherDisplay:10.37,2013-05-09 03:18:00,
2013-05-08 23:24:00,57.2,56.4,30.03,East,90,0.0,0.0,97,0.00,OVC,,0.18,WeatherDisplay:10.37,2013-05-09 03:24:00,
2013-05-08 23:29:00,57.3,56.5,30.03,East,90,4.0,4.0,97,0.00,OVC,,0.18,WeatherDisplay:10.37,2013-05-09 03:29:00,
2013-05-08 23:34:00,57.3,56.5,30.03,East,90,1.1,1.1,97,0.00,OVC,,0.18,WeatherDisplay:10.37,2013-05-09 03:34:00,
2013-05-08 23:39:00,57.2,56.4,30.03,East,90,3.5,3.5,97,0.00,OVC,,0.18,WeatherDisplay:10.37,2013-05-09 03:39:00,
2013-05-08 23:44:00,57.1,56.3,30.03,East,90,1.1,1.1,97,0.00,OVC,,0.18,WeatherDisplay:10.37,2013-05-09 03:44:00,
2013-05-08 23:50:00,57.2,56.4,30.03,SE,125,3.5,3.5,97,0.00,OVC,,0.18,WeatherDisplay:10.37,2013-05-09 03:50:00,
2013-05-08 23:55:00,57.1,56.3,30.03,SE,139,5.8,5.8,97,0.00,OVC,,0.18,WeatherDisplay:10.37,2013-05-09 03:55:00,